| time (UTC) | temp F | wind direction | speed MPH | gust MPH | rain 1hr in | rain 24hr in | rain mn in | humidity % | barometer mb |
| 20260831233054 | 68 | 247 | 6.0 | 7.0 | 0.00 | 0.00 | 0.00 | 82 | 1009.5 |
| 20260831232554 | 68 | 266 | 6.0 | 7.0 | 0.00 | 0.00 | 0.00 | 82 | 1009.6 |
| 20260831231551 | 67 | 263 | 6.0 | 7.0 | 0.00 | 0.00 | 0.00 | 82 | 1009.5 |
| 20260831225547 | 67 | 280 | 6.0 | 7.0 | 0.00 | 0.00 | 0.00 | 81 | 1009.5 |
| 20260831224546 | 67 | 257 | 6.0 | 8.0 | 0.00 | 0.00 | 0.00 | 82 | 1009.5 |
| 20260831224044 | 68 | 238 | 6.0 | 8.0 | 0.00 | 0.00 | 0.00 | 82 | 1009.5 |
| 20260831223042 | 68 | 243 | 6.0 | 7.0 | 0.00 | 0.00 | 0.00 | 83 | 1009.5 |
| 20260831222040 | 68 | 239 | 6.0 | 7.0 | 0.00 | 0.00 | 0.00 | 83 | 1009.5 |
| 20260831221539 | 68 | 231 | 5.0 | 7.0 | 0.00 | 0.00 | 0.00 | 83 | 1009.4 |
| 20260831221038 | 67 | 238 | 5.0 | 7.0 | 0.00 | 0.00 | 0.00 | 84 | 1009.4 |
| 20260831220537 | 67 | 236 | 6.0 | 7.0 | 0.00 | 0.00 | 0.00 | 84 | 1009.4 |
| 20260831220036 | 67 | 233 | 6.0 | 7.0 | 0.00 | 0.00 | 0.00 | 84 | 1009.4 |
| 20260831214533 | 67 | 217 | 6.0 | 8.0 | 0.00 | 0.00 | 0.00 | 84 | 1009.5 |
| 20260831214032 | 67 | 250 | 6.0 | 8.0 | 0.00 | 0.00 | 0.00 | 85 | 1009.5 |
| 20260831213531 | 66 | 210 | 5.0 | 8.0 | 0.00 | 0.00 | 0.00 | 85 | 1009.5 |
| 20260831213030 | 66 | 211 | 5.0 | 7.0 | 0.00 | 0.00 | 0.00 | 85 | 1009.6 |
| 20260831212529 | 66 | 239 | 5.0 | 7.0 | 0.00 | 0.00 | 0.00 | 85 | 1009.6 |
| 20260831211026 | 66 | 232 | 5.0 | 7.0 | 0.00 | 0.00 | 0.00 | 85 | 1009.6 |
| 20260831210641 | 66 | 233 | 6.0 | 8.0 | 0.00 | 0.00 | 0.00 | 85 | 1009.6 |
| 20260831210525 | 66 | 221 | 5.0 | 8.0 | 0.00 | 0.00 | 0.00 | 85 | 1009.6 |
| 20260831210024 | 66 | 233 | 6.0 | 8.0 | 0.00 | 0.00 | 0.00 | 85 | 1009.6 |
| 20260831205022 | 65 | 239 | 6.0 | 8.0 | 0.00 | 0.00 | 0.00 | 85 | 1009.6 |
| 20260831204521 | 65 | 256 | 6.0 | 8.0 | 0.00 | 0.00 | 0.00 | 85 | 1009.6 |
| 20260831204020 | 65 | 259 | 6.0 | 8.0 | 0.00 | 0.00 | 0.00 | 85 | 1009.6 |
| 20260831203519 | 65 | 238 | 7.0 | 9.0 | 0.00 | 0.00 | 0.00 | 85 | 1009.6 |
| 20260831203018 | 65 | 238 | 7.0 | 9.0 | 0.00 | 0.00 | 0.00 | 85 | 1009.7 |
| 20260831202517 | 65 | 236 | 6.0 | 9.0 | 0.00 | 0.00 | 0.00 | 85 | 1009.7 |
| 20260831202016 | 65 | 242 | 7.0 | 8.0 | 0.00 | 0.00 | 0.00 | 85 | 1009.8 |
| 20260831201515 | 64 | 236 | 7.0 | 7.0 | 0.00 | 0.00 | 0.00 | 85 | 1009.7 |
| 20260831201014 | 64 | 243 | 6.0 | 7.0 | 0.00 | 0.00 | 0.00 | 85 | 1009.7 |
| 20260831200513 | 64 | 280 | 6.0 | 8.0 | 0.00 | 0.00 | 0.00 | 85 | 1009.7 |
| 20260831200012 | 64 | 256 | 6.0 | 8.0 | 0.00 | 0.00 | 0.00 | 85 | 1009.6 |
| 20260831195011 | 64 | 245 | 6.0 | 8.0 | 0.00 | 0.00 | 0.00 | 86 | 1009.8 |
| 20260831194509 | 64 | 236 | 6.0 | 8.0 | 0.00 | 0.00 | 0.00 | 86 | 1009.7 |
| 20260831194008 | 64 | 252 | 6.0 | 7.0 | 0.00 | 0.00 | 0.00 | 86 | 1009.9 |
| 20260831193507 | 63 | 246 | 6.0 | 7.0 | 0.00 | 0.00 | 0.00 | 86 | 1009.9 |
| 20260831192505 | 63 | 264 | 4.0 | 5.0 | 0.00 | 0.00 | 0.00 | 87 | 1009.8 |
| 20260831190501 | 63 | 268 | 6.0 | 6.0 | 0.00 | 0.00 | 0.00 | 87 | 1010.2 |
| 20260831190000 | 63 | 261 | 5.0 | 6.0 | 0.00 | 0.00 | 0.00 | 87 | 1010.1 |
| 20260831184958 | 63 | 280 | 5.0 | 5.0 | 0.00 | 0.00 | 0.00 | 87 | 1010.1 |
| 20260831184457 | 62 | 259 | 5.0 | 5.0 | 0.00 | 0.00 | 0.00 | 88 | 1010.0 |
| 20260831183455 | 62 | 263 | 3.0 | 5.0 | 0.00 | 0.00 | 0.00 | 88 | 1010.1 |
| 20260831182954 | 62 | 277 | 4.0 | 5.0 | 0.00 | 0.00 | 0.00 | 88 | 1010.1 |
| 20260831182338 | 62 | 313 | 4.0 | 5.0 | 0.00 | 0.00 | 0.00 | 88 | 1010.2 |
| 20260831180335 | 61 | 268 | 3.0 | 5.0 | 0.00 | 0.00 | 0.00 | 89 | 1010.3 |
| 20260831175333 | 61 | 284 | 3.0 | 4.0 | 0.00 | 0.00 | 0.00 | 89 | 1010.2 |
| 20260831173830 | 61 | 274 | 4.0 | 4.0 | 0.00 | 0.00 | 0.00 | 89 | 1010.3 |
| 20260831173328 | 61 | 295 | 3.0 | 5.0 | 0.00 | 0.00 | 0.00 | 89 | 1010.3 |
| 20260831171324 | 60 | 320 | 3.0 | 5.0 | 0.00 | 0.00 | 0.00 | 90 | 1010.3 |
| 20260831170823 | 60 | 295 | 3.0 | 5.0 | 0.00 | 0.00 | 0.00 | 90 | 1010.3 |
| 20260831170322 | 60 | 285 | 3.0 | 3.0 | 0.00 | 0.00 | 0.00 | 90 | 1010.2 |
| 20260831165821 | 60 | 298 | 1.0 | 3.0 | 0.00 | 0.00 | 0.00 | 90 | 1010.2 |
| 20260831165320 | 60 | 277 | 2.0 | 3.0 | 0.00 | 0.00 | 0.00 | 90 | 1010.2 |
| 20260831164819 | 60 | 242 | 2.0 | 3.0 | 0.00 | 0.00 | 0.00 | 91 | 1010.3 |
| 20260831163821 | 60 | 263 | 1.0 | 3.0 | 0.00 | 0.00 | 0.00 | 1010.4 | |
| 20260831163817 | 60 | 263 | 1.0 | 3.0 | 0.00 | 0.00 | 0.00 | 91 | 1010.4 |
| 20260831163316 | 60 | 247 | 0.0 | 3.0 | 0.00 | 0.00 | 0.00 | 92 | 1010.4 |
| 20260831162815 | 60 | 264 | 2.0 | 3.0 | 0.00 | 0.00 | 0.00 | 92 | 1010.5 |
| 20260831161312 | 59 | 85 | 0.0 | 2.0 | 0.00 | 0.00 | 0.00 | 92 | 1010.6 |
| 20260831160311 | 59 | 133 | 0.0 | 4.0 | 0.00 | 0.00 | 0.00 | 93 | 1010.7 |
| 20260831155809 | 59 | 112 | 1.0 | 4.0 | 0.00 | 0.00 | 0.00 | 93 | 1010.7 |
| 20260831155308 | 59 | 114 | 2.0 | 3.0 | 0.00 | 0.00 | 0.00 | 93 | 1010.8 |
| 20260831153805 | 58 | 0 | 0.0 | 3.0 | 0.00 | 0.00 | 0.00 | 93 | 1010.8 |
| 20260831153305 | 57 | 114 | 0.0 | 3.0 | 0.00 | 0.00 | 0.00 | 93 | 1010.9 |
| 20260831152803 | 57 | 126 | 0.0 | 3.0 | 0.00 | 0.00 | 0.00 | 93 | 1010.9 |
| 20260831152306 | 57 | 124 | 2.0 | 5.0 | 0.00 | 0.00 | 0.00 | 93 | 1010.9 |
| 20260831151301 | 56 | 128 | 2.0 | 5.0 | 0.00 | 0.00 | 0.00 | 93 | 1010.9 |
| 20260831150259 | 56 | 127 | 3.0 | 5.0 | 0.00 | 0.00 | 0.00 | 93 | 1010.9 |
| 20260831145256 | 56 | 130 | 3.0 | 5.0 | 0.00 | 0.00 | 0.00 | 93 | 1010.8 |
| 20260831144755 | 55 | 137 | 3.0 | 6.0 | 0.00 | 0.00 | 0.00 | 93 | 1010.8 |
| 20260831144254 | 55 | 135 | 2.0 | 6.0 | 0.00 | 0.00 | 0.00 | 93 | 1010.7 |
| 20260831143753 | 55 | 128 | 4.0 | 6.0 | 0.00 | 0.00 | 0.00 | 93 | 1010.7 |
| 20260831143252 | 54 | 131 | 3.0 | 4.0 | 0.00 | 0.00 | 0.00 | 93 | 1010.7 |
| 20260831141749 | 54 | 133 | 3.0 | 4.0 | 0.00 | 0.00 | 0.00 | 93 | 1010.7 |
| 20260831141248 | 54 | 133 | 3.0 | 4.0 | 0.00 | 0.00 | 0.00 | 93 | 1010.7 |
| 20260831140747 | 54 | 161 | 2.0 | 4.0 | 0.00 | 0.00 | 0.00 | 93 | 1010.7 |
| 20260831140246 | 54 | 161 | 1.0 | 4.0 | 0.00 | 0.00 | 0.00 | 93 | 1010.7 |
| 20260831135745 | 54 | 161 | 2.0 | 4.0 | 0.00 | 0.00 | 0.00 | 93 | 1010.6 |
| 20260831135244 | 54 | 103 | 2.0 | 2.0 | 0.00 | 0.00 | 0.00 | 93 | 1010.7 |
| 20260831134743 | 54 | 145 | 1.0 | 4.0 | 0.00 | 0.00 | 0.00 | 93 | 1010.8 |
| 20260831133742 | 54 | 138 | 3.0 | 4.0 | 0.00 | 0.00 | 0.00 | 93 | 1010.8 |
| 20260831133241 | 54 | 135 | 2.0 | 3.0 | 0.00 | 0.00 | 0.00 | 93 | 1010.8 |
| 20260831132740 | 54 | 133 | 0.0 | 3.0 | 0.00 | 0.00 | 0.00 | 93 | 1010.9 |
| 20260831131236 | 54 | 134 | 2.0 | 4.0 | 0.00 | 0.00 | 0.00 | 92 | 1010.9 |
| 20260831125733 | 54 | 147 | 1.0 | 8.0 | 0.00 | 0.00 | 0.00 | 92 | 1011.0 |
| 20260831124731 | 54 | 142 | 0.0 | 4.0 | 0.00 | 0.00 | 0.00 | 92 | 1011.0 |
| 20260831124231 | 54 | 135 | 0.0 | 4.0 | 0.00 | 0.00 | 0.00 | 92 | 1011.0 |
| 20260831123228 | 54 | 140 | 2.0 | 3.0 | 0.00 | 0.00 | 0.00 | 92 | 1011.1 |
| 20260831122728 | 55 | 137 | 2.0 | 3.0 | 0.00 | 0.00 | 0.00 | 92 | 1011.2 |
| 20260831121725 | 54 | 162 | 1.0 | 3.0 | 0.00 | 0.00 | 0.00 | 92 | 1011.3 |
| 20260831121225 | 55 | 161 | 2.0 | 2.0 | 0.00 | 0.00 | 0.00 | 92 | 1011.3 |
| 20260831120222 | 54 | 141 | 0.0 | 2.0 | 0.00 | 0.00 | 0.00 | 92 | 1011.5 |
| 20260831114436 | 55 | 140 | 1.0 | 2.0 | 0.00 | 0.00 | 0.00 | 92 | 1011.5 |
| 20260831114218 | 55 | 152 | 1.0 | 2.0 | 0.00 | 0.00 | 0.00 | 92 | 1011.5 |
| 20260831113717 | 55 | 140 | 1.0 | 2.0 | 0.00 | 0.00 | 0.00 | 92 | 1011.5 |
| 20260831112715 | 55 | 135 | 1.0 | 2.0 | 0.00 | 0.00 | 0.00 | 91 | 1011.6 |
| 20260831112214 | 54 | 142 | 0.0 | 2.0 | 0.00 | 0.00 | 0.00 | 91 | 1011.6 |
| 20260831111713 | 55 | 144 | 1.0 | 3.0 | 0.00 | 0.00 | 0.00 | 91 | 1011.7 |
| 20260831111212 | 55 | 155 | 1.0 | 3.0 | 0.00 | 0.00 | 0.00 | 91 | 1011.7 |
| 20260831105709 | 55 | 130 | 1.0 | 3.0 | 0.00 | 0.00 | 0.00 | 91 | 1011.8 |
| 20260831105208 | 55 | 130 | 2.0 | 3.0 | 0.00 | 0.00 | 0.00 | 91 | 1011.7 |
| 20260831103204 | 55 | 142 | 1.0 | 3.0 | 0.00 | 0.00 | 0.00 | 90 | 1011.8 |
| 20260831101701 | 56 | 128 | 1.0 | 3.0 | 0.00 | 0.00 | 0.00 | 90 | 1011.9 |
| 20260831100659 | 56 | 127 | 1.0 | 3.0 | 0.00 | 0.00 | 0.00 | 90 | 1011.9 |
| 20260831100158 | 56 | 128 | 1.0 | 3.0 | 0.00 | 0.00 | 0.00 | 90 | 1011.9 |
| 20260831094655 | 56 | 126 | 2.0 | 3.0 | 0.00 | 0.00 | 0.00 | 90 | 1012.0 |
| 20260831094154 | 56 | 127 | 2.0 | 3.0 | 0.00 | 0.00 | 0.00 | 90 | 1012.1 |
| 20260831093653 | 56 | 127 | 2.0 | 2.0 | 0.00 | 0.00 | 0.00 | 90 | 1012.2 |
| 20260831093152 | 56 | 128 | 1.0 | 2.0 | 0.00 | 0.00 | 0.00 | 90 | 1012.2 |
| 20260831092150 | 56 | 128 | 3.0 | 4.0 | 0.00 | 0.00 | 0.00 | 89 | 1012.4 |
| 20260831091148 | 56 | 127 | 3.0 | 4.0 | 0.00 | 0.00 | 0.00 | 89 | 1012.6 |
| 20260831090647 | 56 | 133 | 2.0 | 4.0 | 0.00 | 0.00 | 0.00 | 89 | 1012.6 |
| 20260831085645 | 57 | 128 | 3.0 | 3.0 | 0.00 | 0.00 | 0.00 | 89 | 1012.7 |
| 20260831085144 | 57 | 127 | 1.0 | 2.0 | 0.00 | 0.00 | 0.00 | 89 | 1012.8 |
| 20260831084647 | 57 | 128 | 0.0 | 4.0 | 0.00 | 0.00 | 0.00 | 89 | 1012.9 |
| 20260831084643 | 57 | 128 | 0.0 | 4.0 | 0.00 | 0.00 | 0.00 | 89 | 1012.9 |
| 20260831083641 | 57 | 130 | 1.0 | 4.0 | 0.00 | 0.00 | 0.00 | 88 | 1012.9 |
| 20260831083141 | 57 | 128 | 3.0 | 4.0 | 0.00 | 0.00 | 0.00 | 88 | 1013.0 |
| 20260831082138 | 57 | 133 | 2.0 | 4.0 | 0.00 | 0.00 | 0.00 | 88 | 1013.0 |
| 20260831081637 | 57 | 131 | 2.0 | 3.0 | 0.00 | 0.00 | 0.00 | 88 | 1013.0 |
| 20260831080636 | 57 | 128 | 2.0 | 3.0 | 0.00 | 0.00 | 0.00 | 88 | 1013.1 |
| 20260831080134 | 57 | 128 | 3.0 | 3.0 | 0.00 | 0.00 | 0.00 | 87 | 1013.2 |
| 20260831075633 | 58 | 124 | 2.0 | 3.0 | 0.00 | 0.00 | 0.00 | 87 | 1013.2 |
| 20260831075132 | 58 | 126 | 2.0 | 3.0 | 0.00 | 0.00 | 0.00 | 87 | 1013.3 |
| 20260831074631 | 58 | 124 | 1.0 | 3.0 | 0.00 | 0.00 | 0.00 | 87 | 1013.3 |
| 20260831073629 | 58 | 126 | 2.0 | 3.0 | 0.00 | 0.00 | 0.00 | 87 | 1013.3 |
| 20260831072627 | 58 | 124 | 2.0 | 3.0 | 0.00 | 0.00 | 0.00 | 87 | 1013.4 |
| 20260831072126 | 58 | 130 | 2.0 | 3.0 | 0.00 | 0.00 | 0.00 | 87 | 1013.5 |
| 20260831071124 | 58 | 124 | 1.0 | 3.0 | 0.00 | 0.00 | 0.00 | 86 | 1013.5 |
| 20260831070623 | 58 | 124 | 2.0 | 3.0 | 0.00 | 0.00 | 0.00 | 86 | 1013.6 |
| 20260831065621 | 58 | 124 | 2.0 | 3.0 | 0.00 | 0.00 | 0.00 | 86 | 1013.6 |
| 20260831065120 | 59 | 121 | 2.0 | 3.0 | 0.00 | 0.00 | 0.00 | 86 | 1013.7 |
| 20260831063617 | 59 | 130 | 2.0 | 4.0 | 0.00 | 0.00 | 0.00 | 86 | 1013.8 |
| 20260831063116 | 59 | 130 | 2.0 | 4.0 | 0.00 | 0.00 | 0.00 | 85 | 1013.9 |
| 20260831061613 | 59 | 137 | 4.0 | 5.0 | 0.00 | 0.00 | 0.00 | 85 | 1013.9 |
| 20260831061112 | 59 | 134 | 4.0 | 5.0 | 0.00 | 0.00 | 0.00 | 85 | 1014.0 |
| 20260831055609 | 59 | 107 | 1.0 | 3.0 | 0.00 | 0.00 | 0.00 | 84 | 1014.2 |
| 20260831054607 | 60 | 126 | 2.0 | 3.0 | 0.00 | 0.00 | 0.00 | 84 | 1014.3 |
| 20260831054106 | 60 | 124 | 2.0 | 2.0 | 0.00 | 0.00 | 0.00 | 84 | 1014.4 |
| 20260831053605 | 60 | 135 | 2.0 | 4.0 | 0.00 | 0.00 | 0.00 | 84 | 1014.4 |
| 20260831053104 | 60 | 127 | 2.0 | 4.0 | 0.00 | 0.00 | 0.00 | 83 | 1014.4 |
| 20260831052603 | 60 | 128 | 3.0 | 4.0 | 0.00 | 0.00 | 0.00 | 83 | 1014.5 |
| 20260831052102 | 60 | 131 | 2.0 | 3.0 | 0.00 | 0.00 | 0.00 | 83 | 1014.5 |
| 20260831051100 | 61 | 0 | 0.0 | 2.0 | 0.00 | 0.00 | 0.00 | 83 | 1014.7 |
| 20260831050559 | 61 | 121 | 0.0 | 2.0 | 0.00 | 0.00 | 0.00 | 83 | 1014.7 |
| 20260831045557 | 61 | 123 | 0.0 | 1.0 | 0.00 | 0.00 | 0.00 | 83 | 1014.8 |
| 20260831045056 | 61 | 127 | 0.0 | 3.0 | 0.00 | 0.00 | 0.00 | 83 | 1014.9 |
| 20260831044555 | 62 | 133 | 2.0 | 3.0 | 0.00 | 0.00 | 0.00 | 83 | 1014.9 |
| 20260831044054 | 62 | 120 | 1.0 | 3.0 | 0.00 | 0.00 | 0.00 | 83 | 1014.9 |
| 20260831043554 | 62 | 112 | 2.0 | 3.0 | 0.00 | 0.00 | 0.00 | 83 | 1014.9 |
| 20260831041549 | 62 | 100 | 3.0 | 8.0 | 0.00 | 0.00 | 0.00 | 83 | 1015.0 |
| 20260831035545 | 62 | 96 | 5.0 | 11.0 | 0.00 | 0.00 | 0.00 | 83 | 1015.0 |
| 20260831034544 | 62 | 58 | 4.0 | 14.0 | 0.00 | 0.00 | 0.00 | 84 | 1015.0 |
| 20260831032539 | 62 | 42 | 11.0 | 18.0 | 0.00 | 0.00 | 0.00 | 84 | 1014.8 |
| 20260831032038 | 62 | 35 | 13.0 | 18.0 | 0.00 | 0.00 | 0.00 | 83 | 1014.8 |
| 20260831031537 | 62 | 49 | 12.0 | 17.0 | 0.00 | 0.00 | 0.00 | 83 | 1014.9 |
| 20260831031036 | 63 | 36 | 11.0 | 17.0 | 0.00 | 0.00 | 0.00 | 82 | 1014.9 |
| 20260831030535 | 63 | 42 | 11.0 | 17.0 | 0.00 | 0.00 | 0.00 | 81 | 1014.9 |
| 20260831030034 | 63 | 57 | 14.0 | 17.0 | 0.00 | 0.00 | 0.00 | 81 | 1014.8 |
| 20260831024531 | 63 | 43 | 13.0 | 22.0 | 0.00 | 0.00 | 0.00 | 79 | 1014.9 |
| 20260831024030 | 63 | 42 | 14.0 | 22.0 | 0.00 | 0.00 | 0.00 | 80 | 1014.9 |
| 20260831023028 | 63 | 51 | 15.0 | 18.0 | 0.00 | 0.00 | 0.00 | 80 | 1015.0 |
| 20260831022527 | 64 | 35 | 16.0 | 18.0 | 0.00 | 0.00 | 0.00 | 79 | 1015.0 |
| 20260831022026 | 64 | 56 | 13.0 | 20.0 | 0.00 | 0.00 | 0.00 | 78 | 1015.1 |
| 20260831021525 | 64 | 56 | 15.0 | 20.0 | 0.00 | 0.00 | 0.00 | 79 | 1015.1 |
| 20260831021024 | 64 | 1 | 16.0 | 20.0 | 0.00 | 0.00 | 0.00 | 78 | 1015.3 |
| 20260831015521 | 64 | 51 | 15.0 | 22.0 | 0.00 | 0.00 | 0.00 | 78 | 1015.4 |
| 20260831015020 | 64 | 54 | 16.0 | 23.0 | 0.00 | 0.00 | 0.00 | 78 | 1015.4 |
| 20260831014519 | 64 | 49 | 16.0 | 23.0 | 0.00 | 0.00 | 0.00 | 78 | 1015.4 |
| 20260831014018 | 64 | 49 | 17.0 | 23.0 | 0.00 | 0.00 | 0.00 | 78 | 1015.6 |
| 20260831013016 | 64 | 51 | 17.0 | 25.0 | 0.00 | 0.00 | 0.00 | 78 | 1015.7 |
| 20260831012515 | 64 | 89 | 18.0 | 25.0 | 0.00 | 0.00 | 0.00 | 78 | 1015.8 |
| 20260831012014 | 64 | 51 | 19.0 | 25.0 | 0.00 | 0.00 | 0.00 | 78 | 1015.8 |
| 20260831011513 | 64 | 56 | 17.0 | 25.0 | 0.00 | 0.00 | 0.00 | 77 | 1015.9 |
| 20260831011012 | 64 | 47 | 20.0 | 23.0 | 0.00 | 0.00 | 0.00 | 76 | 1015.9 |
| 20260831010511 | 64 | 70 | 17.0 | 22.0 | 0.00 | 0.00 | 0.00 | 75 | 1016.0 |
| 20260831010010 | 64 | 58 | 17.0 | 22.0 | 0.00 | 0.00 | 0.00 | 75 | 1016.1 |
| 20260831005008 | 65 | 53 | 16.0 | 22.0 | 0.00 | 0.00 | 0.00 | 76 | 1016.3 |
| 20260831004507 | 64 | 47 | 18.0 | 22.0 | 0.00 | 0.00 | 0.00 | 76 | 1016.4 |
| 20260831004006 | 64 | 64 | 17.0 | 21.0 | 0.00 | 0.00 | 0.00 | 76 | 1016.5 |
| 20260831003004 | 65 | 65 | 16.0 | 25.0 | 0.00 | 0.00 | 0.00 | 77 | 1016.6 |
| 20260831002504 | 64 | 50 | 17.0 | 25.0 | 0.00 | 0.00 | 0.00 | 77 | 1016.6 |
| 20260831002002 | 64 | 77 | 16.0 | 25.0 | 0.00 | 0.00 | 0.00 | 77 | 1016.6 |
| 20260831001501 | 64 | 60 | 19.0 | 23.0 | 0.00 | 0.00 | 0.00 | 77 | 1016.6 |
| 20260831001000 | 64 | 71 | 18.0 | 23.0 | 0.00 | 0.00 | 0.00 | 77 | 1016.6 |
| 20260831000459 | 65 | 37 | 18.0 | 24.0 | 0.00 | 0.00 | 0.00 | 77 | 1016.7 |
| 20260830235958 | 64 | 53 | 20.0 | 24.0 | 0.00 | 0.00 | 0.00 | 77 | 1016.6 |
| 20260830235457 | 65 | 21 | 18.0 | 24.0 | 0.00 | 0.00 | 0.00 | 78 | 1016.8 |
| 20260830234956 | 64 | 39 | 19.0 | 24.0 | 0.00 | 0.00 | 0.00 | 77 | 1016.8 |